Date,TemperatureHighF,TemperatureAvgF,TemperatureLowF,DewpointHighF,DewpointAvgF,DewpointLowF,HumidityHigh,HumidityAvg,HumidityLow,PressureMaxIn,PressureMinIn,WindSpeedMaxMPH,WindSpeedAvgMPH,GustSpeedMaxMPH,PrecipitationSumIn
2012-1-1,33,27,18,33,25,14,99,91,80,30.07,29.61,12,8,23,0.01
2012-1-2,18,15,7,14,8,0,86,76,69,30.47,30.07,12,8,23,0.00
2012-1-3,21,13,1,14,6,-2,87,74,60,30.45,29.93,6,2,11,0.00
2012-1-4,30,24,18,23,19,13,92,82,73,30.03,29.90,8,3,14,0.00
2012-1-5,45,33,18,35,28,16,95,82,66,29.99,29.56,5,2,11,0.17
2012-1-6,44,41,36,35,33,29,78,72,66,29.71,29.55,9,5,17,0.00
2012-1-7,36,31,26,30,24,22,86,76,65,30.22,29.71,11,6,19,0.00
2012-1-8,39,30,22,30,25,20,94,83,67,30.30,30.13,5,2,10,0.00
2012-1-9,44,36,29,32,29,26,89,77,60,30.13,29.80,10,5,20,0.00
2012-1-10,52,38,26,36,31,24,96,78,54,29.97,28.95,7,2,15,0.00
2012-1-11,44,36,26,36,31,24,93,84,70,28.95,28.84,10,4,16,0.00
2012-1-12,26,19,15,24,16,12,94,90,88,28.98,28.85,10,8,19,0.00
2012-1-13,19,16,15,13,12,11,90,83,75,29.30,28.98,10,6,18,0.00
2012-1-14,18,14,13,12,10,8,89,81,70,29.49,29.35,2,1,6,0.00
2012-1-15,33,23,16,26,20,10,90,85,74,29.53,29.16,8,4,17,0.00
2012-1-16,33,28,22,29,25,20,96,88,81,29.85,29.02,7,3,11,0.00
2012-1-17,27,18,5,23,13,-1,91,81,73,30.24,29.80,12,6,21,0.00
2012-1-18,20,10,-3,18,4,-7,91,77,58,30.25,29.69,13,4,18,0.00
2012-1-19,15,-3,-9,10,-12,-15,84,67,50,30.24,29.73,15,6,27,0.00
2012-1-20,7,0,-10,2,-5,-15,88,79,66,30.29,30.24,2,0,4,0.00
2012-1-21,18,8,-5,11,1,-8,88,73,49,30.32,30.05,5,2,10,0.00
2012-1-22,28,22,16,27,20,10,97,91,79,30.05,29.51,6,4,15,0.00
2012-1-23,30,27,23,29,25,20,98,93,86,29.82,29.34,12,7,23,0.00
2012-1-24,26,21,15,20,18,13,94,87,77,30.32,29.82,10,4,17,0.07
2012-1-25,31,25,16,26,21,14,94,87,78,30.39,29.98,5,2,12,0.00
2012-1-26,35,31,25,32,28,22,98,91,74,29.98,29.65,12,4,19,0.01
2012-1-27,38,29,18,32,23,16,95,80,42,29.85,29.69,12,4,21,0.01
2012-1-28,30,22,14,26,17,11,89,80,70,29.97,29.77,12,7,24,0.00
2012-1-29,20,14,10,12,9,4,90,78,60,30.18,29.94,9,3,18,0.00
2012-1-30,34,23,10,25,18,6,90,80,69,30.15,29.74,5,2,11,0.01
2012-1-31,45,35,23,35,31,21,94,83,67,29.88,29.61,11,4,21,0.03
2012-2-1,36,32,26,32,29,25,97,90,86,30.14,29.88,11,3,22,0.00
2012-2-2,33,31,27,32,30,26,98,95,92,30.41,30.13,6,2,11,0.00
2012-2-3,36,30,24,30,28,23,96,91,79,30.50,30.40,4,1,8,0.00
2012-2-4,43,30,17,31,25,15,97,81,55,30.42,30.22,7,2,14,0.01
2012-2-5,37,28,22,31,26,21,97,90,77,30.33,30.16,8,2,16,0.00
2012-2-6,37,30,26,31,28,25,96,90,80,30.23,30.05,7,4,14,0.00
2012-2-7,33,24,17,28,17,10,86,74,56,30.48,30.23,8,4,18,0.00
2012-2-8,30,20,11,10,7,2,80,58,34,30.45,30.24,8,4,12,0.00
2012-2-9,36,24,13,23,15,8,85,68,46,30.24,29.92,7,4,18,0.00
2012-2-10,28,17,8,27,10,-5,94,74,50,30.37,29.85,11,6,21,0.00
2012-2-11,15,9,2,2,-3,-8,61,57,52,30.47,30.36,12,9,19,0.00
2012-2-12,28,18,9,8,3,-1,67,54,39,30.38,30.14,11,5,18,0.00
2012-2-13,31,22,12,26,15,4,95,74,55,30.14,29.79,5,2,11,0.00
2012-2-14,32,29,27,29,27,25,96,90,83,29.88,29.75,4,2,8,0.05
2012-2-15,39,32,28,33,29,27,97,90,79,29.99,29.87,5,2,8,0.04
2012-2-16,39,34,30,29,26,24,92,74,58,30.05,29.98,9,5,14,0.00
2012-2-17,37,30,24,31,26,20,95,85,76,30.07,29.94,9,3,17,0.04
2012-2-18,34,26,20,23,18,15,88,72,50,30.24,30.07,6,2,11,0.00
2012-2-19,35,22,14,24,17,12,93,80,62,30.20,30.14,2,0,3,0.00
2012-2-20,40,31,22,25,21,17,85,68,48,30.21,29.97,7,3,16,0.00
2012-2-21,37,34,30,33,30,24,97,87,74,29.57,29.47,12,6,22,0.14
2012-2-22,36,30,26,26,24,21,89,78,64,29.50,29.37,8,4,15,0.00
2012-2-23,38,30,22,26,23,20,90,76,59,29.63,29.43,5,2,8,0.00
2012-2-24,31,27,21,25,21,14,83,77,66,29.92,29.60,11,6,22,0.00
2012-2-25,30,21,12,19,15,8,83,76,61,30.24,29.92,9,4,17,0.00
2012-2-26,44,31,22,33,23,16,82,72,59,30.23,29.74,11,6,24,0.00
2012-2-27,31,27,21,24,20,17,88,78,63,30.44,29.91,12,6,22,0.00
2012-2-28,32,29,22,28,23,18,91,79,71,30.43,30.03,6,3,9,0.00
2012-2-29,34,33,32,32,30,29,93,91,89,29.59,29.50,7,5,10,0.64
2012-3-1,34,32,30,31,29,27,96,90,85,29.80,29.59,7,2,15,0.14
2012-3-2,35,31,25,31,28,24,98,90,82,29.78,29.50,10,3,17,0.06
2012-3-3,30,27,24,26,24,22,94,88,82,29.79,29.48,10,6,16,0.01
2012-3-4,25,22,18,22,18,15,92,84,69,30.07,29.78,4,2,7,0.06
2012-3-5,33,25,15,25,19,13,93,80,59,30.27,30.06,8,3,12,0.03
2012-3-6,56,40,25,43,33,23,91,76,56,30.06,29.66,7,4,11,0.01
2012-3-7,55,47,35,51,42,33,97,82,69,29.75,29.54,10,6,16,0.08
2012-3-8,35,31,25,33,24,14,91,74,54,30.21,29.75,17,9,23,0.00
2012-3-9,30,24,17,15,12,8,73,60,42,30.57,30.21,14,6,17,0.00
2012-3-10,63,45,27,32,26,13,67,48,28,30.37,29.94,11,6,19,0.00
2012-3-11,66,53,41,37,33,30,71,48,27,30.05,29.86,8,4,12,0.00
2012-3-12,54,49,46,50,46,35,99,90,59,29.86,29.60,8,4,13,0.40
2012-3-13,62,49,38,46,34,26,90,61,29,30.03,29.74,9,4,13,0.00
2012-3-14,75,58,42,60,48,32,92,70,55,29.95,29.73,8,2,11,0.00
2012-3-15,69,56,45,56,48,41,99,77,56,29.98,29.83,5,2,9,0.00
2012-3-16,75,57,41,60,50,38,90,77,59,30.00,29.86,7,2,10,0.00
2012-3-17,80,68,58,64,58,55,92,74,48,29.88,29.77,11,5,20,0.00
2012-3-18,78,67,56,62,58,53,90,72,51,29.85,29.75,9,4,15,0.00
2012-3-19,73,65,57,63,59,55,95,80,61,29.84,29.73,10,4,15,0.00
2012-3-20,76,66,58,62,59,55,98,80,56,29.89,29.75,9,2,17,0.14
2012-3-21,74,66,59,60,56,51,87,71,57,30.02,29.89,7,2,8,0.00
2012-3-22,71,62,57,60,57,55,97,85,64,30.05,29.97,7,3,13,0.34
2012-3-23,61,57,54,59,56,53,99,97,92,30.00,29.81,5,2,7,0.29
2012-3-24,62,58,54,58,56,54,99,93,84,29.93,29.80,5,2,9,0.03
2012-3-25,61,52,40,54,42,26,98,71,36,30.21,29.92,7,4,11,0.01
2012-3-26,42,37,30,30,26,21,78,65,53,30.40,30.10,8,5,15,0.01
2012-3-27,73,52,38,57,40,27,75,64,35,30.15,29.55,15,8,29,0.00
2012-3-28,52,47,39,43,37,33,78,70,57,30.05,29.66,14,7,21,0.00
2012-3-29,51,40,31,36,32,29,91,74,52,30.15,29.91,7,3,12,0.00
2012-3-30,40,37,33,38,35,29,97,93,81,29.95,29.81,5,3,8,0.28
2012-3-31,41,38,36,40,37,34,98,96,92,29.97,29.77,5,3,9,0.01
2012-4-1,62,49,40,48,43,40,99,81,49,29.79,29.68,5,2,9,0.00
2012-4-2,59,49,41,46,41,38,91,74,57,29.90,29.78,7,5,14,0.00
2012-4-3,58,50,44,46,41,30,95,74,53,30.01,29.80,8,4,12,0.04
2012-4-4,61,49,37,36,30,26,71,51,27,30.06,29.91,7,3,11,0.00
2012-4-5,53,42,32,32,28,24,81,60,33,30.21,30.01,7,3,8,0.00
2012-4-6,57,43,29,35,30,21,80,61,39,30.33,30.16,5,2,8,0.00
2012-4-7,62,48,36,47,37,29,94,69,43,30.20,29.98,10,3,13,0.04
2012-4-8,58,47,37,40,30,25,90,54,29,30.17,29.98,14,6,23,0.01
2012-4-9,45,40,33,27,25,21,63,54,46,30.06,29.94,14,8,20,0.00
2012-4-10,40,33,28,22,20,16,68,58,45,30.21,30.05,10,6,19,0.00
2012-4-11,54,41,29,33,27,20,75,59,39,30.33,30.19,6,3,11,0.00
2012-4-12,61,47,31,35,29,26,85,53,30,30.21,30.08,5,1,8,0.00
2012-4-13,58,48,38,44,34,32,79,62,40,30.12,29.83,9,4,14,0.00
2012-4-14,72,58,47,53,46,39,97,69,32,29.88,29.67,8,4,14,0.11
2012-4-15,74,63,53,64,58,45,99,83,62,29.68,29.24,15,5,19,0.41
2012-4-16,67,44,35,56,38,28,92,79,63,30.17,29.19,17,8,24,0.06
2012-4-17,56,42,27,39,32,25,95,68,44,30.35,30.16,6,2,8,0.00
2012-4-18,66,53,44,52,45,39,95,76,50,30.16,29.82,13,6,26,0.37
2012-4-19,47,39,33,42,35,32,97,85,68,30.03,29.86,7,3,11,0.64
2012-4-20,54,42,34,37,32,27,98,70,39,30.05,29.86,8,4,13,0.40
2012-4-21,54,43,31,36,31,25,86,63,41,30.08,29.95,4,2,7,0.00
2012-4-22,56,46,36,39,31,25,71,55,34,30.16,30.01,5,3,11,0.00
2012-4-23,59,48,36,39,33,23,88,59,33,30.13,29.83,8,4,12,0.00
2012-4-24,66,53,36,39,31,23,72,45,31,29.83,29.60,6,2,8,0.00
2012-4-25,52,47,43,44,40,33,88,77,49,29.71,29.63,4,1,8,0.10
2012-4-26,52,46,38,44,33,24,89,63,37,30.17,29.70,10,5,18,0.00
2012-4-27,56,44,28,32,27,23,85,54,32,30.26,30.10,4,2,9,0.00
2012-4-28,49,43,37,36,31,23,78,63,49,30.26,30.06,5,3,9,0.01
2012-4-29,58,47,34,40,32,27,94,62,32,30.29,30.06,6,2,12,0.22
2012-4-30,52,46,41,47,44,40,99,91,82,30.06,29.88,5,1,8,0.08
2012-5-1,70,56,42,54,49,42,99,80,53,29.92,29.70,8,3,14,0.01
2012-5-2,82,67,57,64,59,54,99,78,44,29.76,29.54,9,3,13,0.45
2012-5-3,75,68,61,64,62,58,99,83,63,29.82,29.65,11,3,16,0.63
2012-5-4,70,61,53,59,53,48,91,77,60,29.99,29.83,7,3,10,0.06
2012-5-5,62,54,47,56,51,46,98,91,79,30.10,29.83,9,2,12,0.42
2012-5-6,57,52,46,56,51,46,99,96,90,30.04,29.83,6,2,9,0.74
2012-5-7,69,55,46,56,49,46,99,81,49,29.94,29.80,9,3,14,0.01
2012-5-8,62,52,45,50,46,42,95,81,58,29.84,29.76,7,3,10,0.09
2012-5-9,63,53,43,48,42,30,96,67,42,29.95,29.85,7,3,10,0.01
2012-5-10,70,56,38,43,38,30,88,53,30,29.97,29.87,5,1,7,0.00
2012-5-11,76,62,50,60,50,41,85,66,50,30.10,29.87,10,4,16,0.00
2012-5-12,68,58,49,49,42,34,88,59,30,30.27,30.10,5,2,8,0.00
2012-5-13,72,60,43,46,38,32,80,47,28,30.24,30.02,7,2,9,0.00
2012-5-14,79,66,49,51,44,38,68,47,28,30.02,29.82,7,2,10,0.00
2012-5-15,68,63,60,48,46,44,60,54,48,29.81,29.72,9,3,14,0.00
2012-5-16,67,60,43,43,38,32,85,46,32,30.09,30.03,5,2,8,0.00
2012-5-17,70,58,42,49,44,37,92,63,42,30.10,29.89,8,3,12,0.00
2012-5-18,85,69,53,57,49,42,70,51,32,29.90,29.80,7,4,12,0.00
2012-5-19,87,74,60,62,56,47,68,54,38,29.88,29.78,8,4,15,0.00
2012-5-20,82,67,49,67,58,44,94,74,50,30.04,29.72,12,6,23,0.03
2012-5-21,70,58,42,48,43,41,96,63,35,30.17,30.04,6,3,11,0.00
2012-5-22,55,48,44,43,40,38,89,73,60,30.10,30.06,1,0,1,0.00
2012-5-24,83,64,60,64,61,58,97,92,44,29.53,29.25,10,5,17,0.40
2012-5-25,70,63,51,58,52,50,96,69,51,30.08,29.54,10,4,21,0.00
2012-5-26,66,62,58,62,60,56,98,92,80,30.12,29.90,15,2,22,0.47
2012-5-27,87,73,59,73,65,58,97,79,56,29.95,29.63,6,3,15,0.00
2012-5-28,80,73,64,67,63,55,88,72,56,29.67,29.52,12,4,21,0.00
2012-5-29,63,59,54,55,49,45,85,69,56,29.79,29.64,13,6,29,0.00
2012-5-30,58,53,48,47,44,41,89,72,58,29.96,29.79,7,3,11,0.00
2012-5-31,61,51,45,46,42,40,89,73,48,30.02,29.93,3,1,5,0.00
2012-6-1,68,56,42,46,41,38,92,62,34,29.94,29.69,6,2,9,0.00
2012-6-2,73,63,49,47,43,39,75,51,30,29.68,29.62,12,5,19,0.00
2012-6-3,78,66,55,55,50,44,83,58,33,29.79,29.68,8,3,11,0.01
2012-6-4,77,66,56,62,57,52,92,73,50,29.89,29.78,4,1,5,0.01
2012-6-6,77,68,58,53,50,48,69,55,37,30.05,30.01,2,0,2,0.00
2012-6-7,81,68,51,58,54,48,96,64,43,30.09,29.96,5,1,8,0.00
2012-6-8,83,70,62,65,59,54,94,69,49,29.97,29.74,6,2,13,0.13
2012-6-9,72,69,66,60,58,57,75,70,61,29.75,29.72,4,2,6,0.00
2012-6-10,88,77,65,68,61,57,75,60,38,29.78,29.67,9,4,16,0.00
2012-6-11,82,73,61,68,60,46,96,65,36,29.81,29.64,12,6,19,0.08
2012-6-12,67,58,50,47,44,42,79,61,42,30.09,29.81,9,5,15,0.00
2012-6-13,74,61,44,52,48,42,92,65,43,30.15,29.99,5,2,11,0.00
2012-6-14,69,61,54,61,53,43,96,76,59,30.10,29.90,11,3,16,0.96
2012-6-15,86,73,61,71,65,58,94,76,56,29.96,29.81,9,2,11,0.15
2012-6-16,76,72,67,70,65,59,95,80,64,29.93,29.69,6,2,9,0.11
2012-6-17,79,71,58,63,58,53,95,64,43,29.80,29.58,7,3,9,0.09
2012-6-18,86,76,64,75,70,60,97,82,68,29.62,29.42,8,3,14,0.68
2012-6-19,90,76,65,74,70,64,97,84,53,29.77,29.60,8,3,12,0.75
2012-6-21,68,64,60,56,55,54,86,75,62,29.92,29.89,2,0,3,0.03
2012-6-22,78,67,57,60,57,54,93,73,48,29.95,29.90,8,2,12,0.00
2012-6-23,79,68,56,66,61,54,94,80,60,29.96,29.89,4,1,6,0.00
2012-6-24,82,72,61,67,62,50,91,73,56,30.03,29.88,5,2,7,0.00
2012-6-25,76,64,50,54,49,45,85,60,40,30.13,30.01,4,1,9,0.00
2012-6-26,79,66,51,58,53,49,94,66,37,30.05,29.82,5,2,9,0.00
2012-6-27,90,76,60,72,63,54,84,65,49,29.82,29.61,6,2,12,0.00
2012-6-28,82,76,69,75,67,59,96,75,47,29.81,29.63,9,2,10,0.00
2012-6-29,85,76,64,64,60,57,81,61,39,29.82,29.71,5,2,9,0.00
2012-6-30,86,80,68,66,61,56,86,54,38,29.82,29.74,7,3,9,0.00
2012-7-1,91,78,64,68,63,61,92,63,39,29.90,29.81,4,1,7,0.00
2012-7-2,95,82,68,77,69,62,83,68,48,29.87,29.72,5,2,9,0.00
2012-7-3,93,81,65,77,71,63,96,74,51,29.89,29.65,13,2,26,0.35
2012-7-4,98,85,74,80,75,69,96,74,41,29.77,29.68,5,1,7,0.00
2012-7-5,94,84,73,80,74,69,88,74,60,29.86,29.74,4,2,7,0.00
2012-7-6,97,83,68,78,71,65,91,69,42,29.91,29.77,5,1,8,0.00
2012-7-7,83,74,66,74,64,59,93,74,49,30.03,29.79,5,2,8,0.00
2012-7-8,85,74,63,65,60,55,85,65,40,30.08,29.97,7,2,11,0.00
2012-7-9,84,74,62,66,60,50,97,66,32,30.04,29.99,6,2,11,0.00
2012-7-10,84,71,58,64,58,52,97,67,36,30.11,30.04,4,1,7,0.00
2012-7-11,86,70,58,59,56,51,90,67,32,30.11,29.99,3,0,5,0.00
2012-7-12,89,77,63,65,57,52,77,53,30,30.03,29.93,5,1,9,0.00
2012-7-13,76,66,61,68,59,57,87,79,68,29.96,29.89,1,0,2,0.00
2012-7-14,85,75,66,70,67,64,98,78,57,29.94,29.85,6,2,11,0.20
2012-7-15,90,79,67,72,67,62,96,70,39,29.97,29.89,6,1,8,0.00
2012-7-16,95,82,67,71,66,62,92,63,34,29.90,29.64,8,3,16,0.00
2012-7-17,90,81,73,77,72,67,87,74,61,29.82,29.67,6,2,11,0.00
2012-7-18,76,69,63,70,66,62,98,90,78,29.93,29.79,5,1,10,0.92
2012-7-19,76,67,60,65,62,56,95,83,63,30.03,29.84,5,2,9,0.04
2012-7-20,83,70,55,65,60,54,97,74,49,30.12,29.97,4,1,8,0.00
2012-7-21,86,75,66,71,67,62,93,77,56,29.99,29.90,7,2,11,0.02
2012-7-22,87,78,68,72,69,67,98,77,53,29.96,29.81,5,2,10,0.00
2012-7-23,92,81,71,76,69,61,95,69,38,29.85,29.78,8,4,15,0.00
2012-7-24,82,75,68,72,68,66,96,81,65,29.94,29.83,5,1,9,0.08
2012-7-25,90,77,68,76,68,57,90,74,58,29.83,29.49,7,3,12,0.00
2012-7-26,84,76,70,72,65,58,97,71,42,29.68,29.51,11,4,17,0.00
2012-7-27,79,69,60,64,62,59,97,78,54,30.00,29.68,6,2,11,0.00
2012-7-28,85,71,56,65,60,55,97,70,42,30.09,29.97,4,1,7,0.00
2012-7-29,80,71,63,67,64,60,92,81,61,30.01,29.89,4,1,7,0.00
2012-7-30,89,75,61,72,66,61,99,76,51,29.91,29.74,9,3,14,0.00
2012-7-31,84,73,62,64,61,57,93,68,42,29.90,29.83,5,2,9,0.00
2012-8-1,91,76,57,69,62,55,96,67,36,29.90,29.70,6,2,11,0.00
2012-8-2,87,76,67,72,67,63,95,75,47,29.80,29.70,12,2,12,0.48
2012-8-3,90,76,63,71,65,59,99,72,37,29.87,29.77,3,1,6,0.00
2012-8-4,74,69,64,70,66,60,98,90,76,29.90,29.72,10,3,13,0.78
2012-8-5,74,65,58,60,54,49,91,70,47,30.08,29.80,8,4,14,0.00
2012-8-6,81,68,53,59,56,51,96,69,40,30.10,29.89,5,2,8,0.00
2012-8-7,84,73,62,67,58,52,91,64,35,29.94,29.86,7,2,15,0.00
2012-8-8,77,66,58,64,59,55,96,79,57,29.98,29.91,4,1,7,0.21
2012-8-9,67,61,58,63,59,56,99,94,84,29.98,29.90,6,1,10,1.10
2012-8-10,73,64,56,58,54,48,97,72,42,30.03,29.96,6,3,12,0.01
2012-8-11,77,63,48,56,51,45,91,68,41,30.03,29.92,5,2,8,0.00
2012-8-12,71,61,53,60,54,51,94,78,57,29.96,29.90,3,0,5,0.00
2012-8-13,79,70,61,62,59,55,97,70,46,29.93,29.85,6,2,9,0.00
2012-8-14,78,68,58,60,56,50,96,70,41,29.90,29.83,5,1,10,0.00
2012-8-15,81,68,55,65,59,54,97,74,49,29.86,29.70,5,2,9,0.00
2012-8-16,70,65,59,64,58,53,96,78,65,29.90,29.60,11,6,20,0.05
2012-8-17,71,60,50,53,48,41,93,65,41,29.99,29.90,8,4,14,0.00
2012-8-18,75,61,46,55,49,44,94,68,44,29.98,29.88,5,2,10,0.00
2012-8-19,75,64,54,56,51,44,96,68,35,29.94,29.87,6,1,12,0.00
2012-8-20,74,61,47,50,46,42,86,60,37,29.97,29.91,6,1,8,0.00
2012-8-21,79,66,50,55,50,47,88,60,37,30.03,29.96,5,1,8,0.00
2012-8-22,86,68,52,61,54,48,88,63,34,30.01,29.90,4,1,9,0.00
2012-8-23,88,75,65,67,62,58,82,66,42,29.93,29.82,4,1,6,0.00
2012-8-24,88,76,64,68,62,59,89,65,41,29.87,29.81,8,3,14,0.15
2012-8-25,88,75,60,66,60,56,91,63,34,29.93,29.86,6,2,12,0.00
2012-8-26,81,71,66,70,67,62,99,89,67,29.94,29.87,4,1,6,0.22
2012-8-27,82,68,61,62,59,57,93,75,44,30.05,29.94,6,1,9,0.00
2012-8-28,80,69,56,63,59,54,96,73,49,30.12,29.98,3,1,6,0.00
2012-8-29,86,73,61,69,64,58,93,75,55,30.00,29.84,5,2,12,0.00
2012-8-30,93,80,67,66,64,62,89,63,37,29.85,29.69,9,4,18,0.00
2012-8-31,85,75,66,65,58,50,86,59,30,30.05,29.78,5,1,9,0.00
2012-9-1,83,69,58,57,54,51,86,61,33,30.11,29.99,4,2,7,0.00
2012-9-2,86,71,56,67,60,51,92,71,52,30.01,29.85,4,2,9,0.00
2012-9-3,80,72,63,72,67,61,96,85,71,29.87,29.80,4,1,7,0.00
2012-9-4,90,72,62,72,65,56,100,80,41,29.83,29.68,17,1,20,0.22
2012-9-5,80,70,61,62,58,55,93,70,46,29.78,29.69,9,2,11,0.00
2012-9-6,78,67,52,57,52,47,92,61,35,29.91,29.78,7,2,10,0.00
2012-9-7,66,59,51,58,54,48,95,83,55,29.89,29.80,8,2,11,0.22
2012-9-8,67,55,47,57,50,46,95,85,54,29.90,29.72,9,4,15,0.42
2012-9-9,70,59,50,55,50,48,97,77,46,30.09,29.90,6,2,10,0.01
2012-9-10,76,61,45,56,50,44,98,71,43,30.12,29.92,7,2,11,0.00
2012-9-11,86,71,57,60,55,51,81,60,34,29.94,29.80,9,5,14,0.00
2012-9-12,72,64,53,59,50,37,96,64,28,30.18,29.85,6,3,9,0.14
2012-9-13,68,56,50,53,48,34,97,76,32,30.28,30.18,6,2,9,0.07
2012-9-14,71,58,45,46,43,39,88,61,32,30.29,30.23,5,1,10,0.00
2012-9-15,78,61,44,52,46,41,96,64,33,30.26,30.00,6,2,14,0.00
2012-9-16,76,64,52,55,50,46,80,61,37,30.00,29.83,7,3,14,0.00
2012-9-17,62,54,43,54,50,41,95,84,66,29.88,29.78,8,2,11,0.35
2012-9-18,57,45,38,43,35,25,96,70,32,29.97,29.87,9,3,12,0.01
2012-9-19,68,51,37,52,40,32,86,67,50,29.96,29.60,9,4,18,0.01
2012-9-20,60,52,43,46,41,36,90,67,44,29.85,29.75,9,4,14,0.00
2012-9-21,56,48,40,48,43,37,96,83,62,29.83,29.73,6,2,12,0.22
2012-9-22,55,45,35,44,38,33,98,79,45,30.16,29.70,11,4,20,0.20
2012-9-23,55,44,36,37,34,31,91,69,42,30.23,30.14,9,3,12,0.00
2012-9-24,72,55,37,43,37,31,80,55,32,30.14,29.69,10,3,23,0.00
2012-9-25,67,55,43,48,42,38,89,65,36,29.91,29.71,5,2,23,0.00
2012-9-26,62,49,37,41,37,34,94,66,36,30.19,29.91,5,1,23,0.00
2012-9-27,65,49,35,46,39,33,98,71,39,30.29,30.16,3,0,23,0.00
2012-9-28,69,50,39,44,41,36,96,74,33,30.20,30.07,4,0,23,0.00
2012-9-29,76,59,43,46,41,37,89,56,27,30.07,29.95,4,1,7,0.00
2012-9-30,70,54,40,48,43,38,95,68,36,30.00,29.90,3,0,6,0.00
2012-10-1,71,57,46,51,46,42,85,68,41,29.90,29.77,4,2,8,0.00
2012-10-2,72,57,46,50,45,41,96,68,35,29.92,29.83,4,1,7,0.00
2012-10-3,74,57,41,55,48,40,99,74,42,29.95,29.86,3,1,5,0.01
2012-10-4,60,52,43,51,42,30,92,70,47,30.02,29.81,14,6,23,0.00
2012-10-5,49,42,38,32,29,26,71,61,48,30.03,29.95,12,8,20,0.00
2012-10-6,44,39,35,31,29,26,83,67,56,30.19,30.00,10,5,16,0.00
2012-10-7,49,40,31,27,23,20,79,53,32,30.18,29.99,8,2,16,0.00
2012-10-8,60,48,34,37,31,21,65,52,40,29.99,29.69,10,6,19,0.00
2012-10-9,55,45,40,47,41,34,96,87,47,29.83,29.68,11,3,24,0.27
2012-10-10,47,39,31,34,29,25,90,67,44,30.05,29.83,11,5,19,0.01
2012-10-11,50,43,33,37,29,19,80,57,30,30.32,29.84,11,5,19,0.00
2012-10-12,50,38,28,31,25,22,83,61,34,30.45,30.17,6,2,19,0.00
2012-10-13,51,45,39,51,43,24,99,94,54,30.17,29.70,5,2,10,1.09
2012-10-14,49,46,42,49,44,39,99,95,89,29.76,29.57,10,5,13,1.01
2012-10-15,57,45,37,42,39,35,95,79,54,29.92,29.76,6,3,10,0.00
2012-10-16,67,54,45,49,46,39,88,73,51,29.85,29.39,6,2,14,0.00
2012-10-17,66,54,45,55,50,45,99,90,66,29.39,29.18,9,2,14,0.20
2012-10-18,51,46,43,50,43,42,97,92,83,29.38,29.14,5,2,14,0.11
2012-10-19,51,44,41,44,42,38,98,91,74,29.65,29.38,5,2,14,0.05
2012-10-20,52,42,35,45,40,34,99,92,74,29.86,29.65,5,2,14,0.01
2012-10-21,56,49,37,48,45,36,98,86,72,29.95,29.86,6,2,14,0.01
2012-10-22,61,54,48,52,50,46,95,84,72,29.93,29.87,6,2,9,0.00
2012-10-23,61,54,49,61,54,48,100,97,93,29.92,29.77,5,3,9,0.00
2012-10-24,69,64,61,66,64,61,100,97,90,29.81,29.61,6,2,8,0.02
2012-10-25,66,49,36,65,48,32,100,94,82,30.01,29.45,14,6,22,2.28
2012-10-26,38,36,32,32,28,25,87,75,65,30.33,30.02,11,6,18,0.00
2012-10-27,42,35,28,28,24,19,88,65,41,30.37,30.30,6,2,10,0.00
2012-10-28,46,36,27,27,23,22,86,62,39,30.39,30.31,3,0,5,0.00
2012-10-29,49,37,25,32,25,21,88,65,40,30.38,30.21,3,1,7,0.00
2012-10-30,45,36,30,30,26,22,87,68,43,30.22,29.93,10,5,17,0.00
2012-10-31,45,35,26,28,22,16,90,63,36,29.93,29.86,9,5,13,0.00
2012-11-1,44,40,35,34,27,16,85,61,43,29.93,29.84,9,5,16,0.00
2012-11-2,43,36,26,28,26,23,90,69,53,30.19,30.05,5,1,8,0.00
2012-11-3,39,34,29,30,28,25,86,78,69,30.26,30.18,5,1,7,0.00
2012-11-4,45,34,25,31,27,23,93,78,56,30.27,30.18,3,0,5,0.00
2012-11-5,41,32,25,30,26,23,92,82,63,30.25,30.07,5,1,7,0.00
2012-11-6,34,34,31,33,32,29,99,95,86,30.07,29.79,5,3,9,0.18
2012-11-7,42,36,33,38,34,33,99,94,79,30.12,29.92,3,1,7,0.01
2012-11-8,50,41,34,40,36,33,96,83,66,30.12,29.96,8,3,12,0.00
2012-11-9,46,40,33,41,38,32,98,90,80,30.08,30.00,6,3,12,0.00
2012-11-10,62,48,40,55,46,38,98,93,77,30.04,29.63,7,4,13,0.14
2012-11-11,64,48,27,55,44,23,98,86,62,29.83,29.57,11,6,18,1.04
2012-11-12,27,24,22,24,18,14,86,76,68,30.28,29.84,12,7,18,0.00
2012-11-13,38,29,19,24,20,16,90,72,48,30.44,30.28,8,2,9,0.00
2012-11-14,48,38,31,34,29,24,80,70,54,30.41,30.24,7,3,9,0.00
2012-11-15,52,41,34,35,33,26,81,72,52,30.37,30.19,6,3,8,0.00
2012-11-16,42,34,27,36,29,23,97,82,71,30.50,30.37,5,2,7,0.00
2012-11-17,53,42,36,41,37,35,99,84,59,30.44,30.34,6,3,9,0.00
2012-11-18,56,45,37,37,35,33,86,69,44,30.35,30.20,7,3,10,0.00
2012-11-19,49,45,42,41,38,34,86,76,68,30.21,30.04,4,1,7,0.00
2012-11-20,56,43,35,44,39,34,98,86,63,30.11,30.03,6,1,10,0.00
2012-11-21,62,45,29,46,39,28,99,83,54,30.11,29.85,6,3,11,0.01
2012-11-22,63,51,31,46,41,26,89,72,54,29.85,29.56,17,6,20,0.00
2012-11-23,31,25,21,26,18,15,85,77,71,30.26,29.74,14,10,23,0.00
2012-11-24,30,24,18,23,16,13,86,72,56,30.26,29.87,7,3,12,0.00
2012-11-25,32,28,25,24,22,18,90,79,69,30.08,29.81,11,5,17,0.00
2012-11-26,26,20,13,23,12,8,88,73,58,30.39,30.08,8,4,13,0.00
2012-11-27,32,22,11,19,13,7,86,70,51,30.38,30.15,6,3,10,0.00
2012-11-28,32,28,23,24,21,18,85,77,65,30.34,30.17,8,3,11,0.00
2012-11-29,41,32,25,30,26,22,89,78,62,30.17,30.08,6,3,10,0.00
2012-11-30,33,30,28,32,29,26,98,95,89,30.22,30.14,7,4,13,0.00
2012-12-1,45,39,33,45,38,32,99,97,93,30.17,29.78,5,3,8,0.00
2012-12-2,46,39,37,46,38,37,99,98,96,30.00,29.79,5,2,10,0.01
2012-12-3,57,48,38,57,47,38,100,96,85,29.94,29.57,11,5,18,0.04
2012-12-4,42,36,28,38,28,17,86,73,59,30.20,29.84,12,6,19,0.00
2012-12-5,32,28,16,26,20,13,88,73,62,30.45,30.12,6,3,10,0.00
2012-12-6,44,37,32,39,32,26,91,84,77,30.13,29.78,10,5,13,0.03
2012-12-7,34,30,26,30,26,23,92,84,75,30.02,29.90,8,3,9,0.00
2012-12-8,36,28,23,27,24,22,95,84,65,30.12,29.99,4,1,9,0.00
2012-12-9,30,29,27,29,27,23,97,92,85,30.14,29.74,6,4,10,0.00
2012-12-10,28,23,17,27,22,16,97,94,91,29.92,29.74,5,2,8,0.00
2012-12-11,22,19,16,19,17,14,94,90,85,30.07,29.85,7,3,9,0.00
2012-12-12,38,26,12,30,21,10,95,83,69,30.14,30.00,8,3,14,0.07
2012-12-13,40,32,22,26,23,19,87,69,54,30.12,29.99,6,2,14,0.05
2012-12-14,36,28,17,33,25,16,97,90,78,30.20,29.98,6,2,8,0.02
2012-12-15,38,36,34,37,35,33,99,97,92,29.97,29.49,8,3,11,0.48
2012-12-16,36,34,29,36,33,27,99,97,93,29.69,29.48,8,4,14,0.06
2012-12-17,29,25,23,27,22,21,95,90,86,29.75,29.69,7,3,10,0.00
2012-12-18,30,26,21,26,23,20,96,90,82,29.74,29.67,3,1,6,0.00
2012-12-31,12,7,1,6,2,-2,87,79,76,30.23,30.14,4,2,7,0.00
2013-1-1,13,5,-5,9,1,-8,88,80,62,30.29,30.13,7,2,9,0.00